Hourly Data Report for June 30, 2022

TORONTO CITY
ONTARIO
Current Station Operator: ECCC - MSC

43°40'00.000" N
79°24'00.000" W
112.50 m
6158355
71508
XTO

Download Data

Hourly Data (June 2022)
Hourly Data Report for June 30, 2022
TIME
LST
Temp Definition
°C
Dew Point Definition
°C
Rel Hum Definition
%
Precip. Amount Definition
mm

Wind Dir Definition
10's deg

Wind Spd Definition
km/h
Visibility Definition
km
Stn Press Definition
kPa
Hmdx Definition


Wind Chill Definition


Weather Definition


00:00 17.4 10.7 65 0.0       100.93     LegendNANA
01:00 15.8 10.8 72 0.0       100.96     LegendNANA
02:00 15.3 11.0 75 0.0       100.96     LegendNANA
03:00 15.3 10.6 73 0.0       100.92     LegendNANA
04:00 16.1 10.2 68 0.0       100.93     LegendNANA
05:00 16.3 9.7 65 0.0       100.89     LegendNANA
06:00 17.1 9.8 62 0.0       100.90     LegendNANA
07:00 17.9 10.5 62 0.0       100.97     LegendNANA
08:00 19.5 10.9 58 0.0       100.95     LegendNANA
09:00 19.5 9.0 51 0.0       100.88     LegendNANA
10:00 20.1 11.0 56 0.0       100.81     LegendNANA
11:00 21.3 13.5 61 0.0       100.73     LegendNANA
12:00 23.0 15.1 61 0.0       100.68 27   LegendNANA
13:00 24.8 16.0 58 0.0       100.58 29   LegendNANA
14:00 24.8 16.0 58 0.0       100.47 29   LegendNANA
15:00 24.0 16.6 63 0.0       100.41 29   LegendNANA
16:00 24.2 15.5 58 0.0       100.31 28   LegendNANA
17:00 24.0 16.6 63 0.0       100.29 29   LegendNANA
18:00 23.7 16.7 65 0.0       100.25 29   LegendNANA
19:00 23.9 16.0 62 0.0       100.23 29   LegendNANA
20:00 22.9 15.4 63 0.0       100.21 27   LegendNANA
21:00 22.4 14.3 60 0.0       100.18 26   LegendNANA
22:00 23.1 13.6 55 0.0       100.16 26   LegendNANA
23:00 21.4 14.8 66 0.0       100.14 25   LegendNANA

Notes on Data Quality.

Legend

  • E = Estimated
  • M = Missing
  • NA = Not Available*
  • [empty] = Indicates an unobserved value
Date modified: